Tracking 29528 objects as of 14-Sep-2024
HD Live streaming from Space Station
objects crossing your sky now

COSMOS 1408 DEB

Track COSMOS 1408 DEB now!
10-day predictions


NORAD ID: 50404
Int'l Code: 1982-092ADS
Perigee: 456.9 km
Apogee: 1,016.7 km
Inclination: 82.2 °
Period: 99.4 minutes
Semi major axis: 7107 km
RCS: Unknown
Launch date: September 16, 1982
Source: Commonwealth of Independent States (former USSR) (CIS)
Launch site: PLESETSK MISSILE AND SPACE COMPLEX (PKMTR)

Note: This is SATELLITE DEBRIS
Your satellite tracking list
Your tracking list is empty




NASA's NSSDC Master Catalog

Two Line Element Set (TLE):
1 50404U 82092ADS 24256.82038316  .00084545  00000-0  81202-2 0  9995
2 50404  82.2392 297.0429 0393757 244.7328 111.2584 14.48774004144525
Source of the keplerian elements: AFSPC